SCP
0 0 0 0 0 0 0 0 0 0 0 0 0 0 -0 -0 -0 0 0 -0 -0 -0 -0 -0 -0 -0 -0 0 0 0 0 0 0 0 0 0 0 0 0 0 0 0 0 0 0 0 0 0 0
0 0 0 0 0 0 0 0 0 0 0 0 0 0 0 -0 -0 0 -0 -0 -0 -0 0 -0 -0 -0 -0 0 0 0 0 0 0 0 0 0 0 0 0 0 0 0 0 0 0 0 0 0 0
0 0 0 0 0 0 0 0 0 0 0 0 0 0 0 -0 -0 0 0 -0 -0 -0 0 -0 -0 -0 -0 0 0 0 0 0 0 0 0 0 0 0 0 0 0 0 0 0 0 0 0 0 0
0 0 0 0 0 0 0 0 0 0 0 0 0 0 0 0 0 -0 0 -0 -0 -0 0 0 -0 -0 0 0 0 0 0 0 0 0 0 0 0 0 0 0 0 0 0 0 0 0 0 0 0
0 0 0 0 0 0 0 0 0 0 0 0 0 0 0 0 0 0 0 0 0 0 0 0 -0 -0 0 0 0 0 0 0 0 0 0 0 0 0 0 0 0 0 0 0 0 0 0 0 0
0 0 0 0 0 0 0 0 0 0 0 0 0 0 0 0 0 0 0 0 0 0 -0 0 0 0 1 0 0 0 0 0 0 0 0 0 0 0 0 0 0 0 0 0 0 0 0 0 0
0 0 0 0 0 0 0 0 0 0 0 0 0 0 0 0 0 0 0 0 0 -0 -0 0 0 0 1 0 0 0 0 0 0 0 0 0 0 0 0 0 0 0 0 0 0 0 0 0 0
0 0 0 0 0 0 0 0 0 0 0 0 0 0 0 0 0 0 0 0 0 -0 -0 0 0 0 0 0 1 1 1 1 1 1 0 0 0 0 0 0 0 0 0 0 0 0 0 0 0
0 0 0 0 0 0 0 0 0 0 0 0 0 0 0 0 0 0 0 0 0 -0 0 0 0 0 0 0 0 1 1 1 1 1 1 1 0 0 0 0 0 1 1 1 1 0 0 0 0
0 0 0 0 0 0 0 0 0 0 0 0 0 0 0 0 0 0 0 0 0 0 0 0 0 0 0 0 0 1 0 1 0 0 0 0 0 0 0 0 1 1 1 1 1 1 1 1 0
0 0 0 0 0 0 0 0 0 0 0 0 0 0 0 0 0 0 0 0 0 0 0 0 0 0 0 0 0 1 1 1 1 0 1 1 0 0 0 0 1 1 1 1 1 1 1 0 0
0 0 0 0 0 0 0 0 0 0 0 0 0 0 0 0 0 0 0 0 0 0 0 0 0 1 0 0 0 0 0 1 1 1 2 3 2 2 1 0 0 1 1 1 0 1 1 0 1
0 0 0 0 0 0 0 0 0 0 0 0 0 0 0 0 0 0 0 0 0 0 0 0 0 1 1 1 0 1 1 1 1 1 2 1 1 2 1 1 0 1 0 0 1 0 1 1 1
0 0 0 0 0 0 0 0 0 0 0 0 0 0 -0 -0 0 0 0 0 0 0 0 0 0 0 1 1 1 2 1 1 1 1 1 2 1 3 1 1 1 0 0 0 1 0 1 1 1
0 0 0 0 0 0 0 0 0 0 0 0 0 0 -0 -0 0 0 0 0 0 0 0 0 0 0 1 1 1 2 1 1 1 1 2 2 2 2 2 1 1 0 0 1 1 1 1 1 1
0 0 0 0 0 0 0 0 0 0 0 0 0 0 0 0 0 0 0 0 0 0 0 0 0 0 0 1 1 1 1 1 1 1 1 1 2 1 1 1 1 0 1 0 1 0 0 0 2
0 0 0 0 0 0 0 0 0 0 0 0 0 0 0 0 0 0 0 0 0 0 0 0 0 0 0 1 0 1 2 1 1 1 1 1 1 1 1 0 0 1 1 0 0 0 0 0 2
0 0 0 0 0 0 0 0 0 0 0 0 0 0 0 0 0 0 0 0 0 0 0 0 1 1 0 0 0 1 1 1 1 1 1 2 2 1 1 1 1 1 1 0 0 0 0 1 1
0 0 0 0 0 0 0 0 0 0 0 0 0 0 0 0 0 0 0 0 0 0 0 1 0 2 1 0 0 1 1 1 1 2 2 2 1 1 1 1 1 1 1 1 0 1 1 1 1
0 0 0 0 0 0 0 0 0 0 0 0 0 0 0 0 0 0 0 0 0 0 0 0 0 1 1 0 1 1 1 1 1 1 1 1 1 1 1 1 1 1 1 1 1 1 1 1 1
0 0 0 0 0 0 0 0 0 0 0 0 0 0 0 0 0 0 0 0 0 0 0 0 0 0 1 0 1 2 2 2 1 1 1 2 1 1 1 1 1 1 1 1 1 1 1 1 1
0 0 0 0 0 0 0 0 0 0 0 0 0 0 0 0 0 0 0 0 0 0 0 0 0 0 0 1 1 1 1 1 1 1 2 1 1 1 1 2 1 1 0 1 1 1 1 1 0
0 0 0 0 0 0 0 0 0 0 0 0 0 0 0 0 0 0 0 0 0 0 0 0 0 0 0 1 1 1 1 2 2 2 2 2 1 1 1 1 1 1 1 1 1 1 1 0 0
0 0 0 0 0 0 0 0 0 0 0 0 0 0 0 0 0 0 0 0 0 0 0 0 0 0 0 0 0 1 2 2 2 3 2 2 2 2 1 1 1 1 1 1 1 1 0 0 0
0 0 0 0 0 0 0 0 0 0 0 0 0 0 0 0 0 0 0 0 0 0 0 0 0 1 1 0 1 1 2 2 2 1 1 1 2 1 1 1 1 1 1 1 0 0 0 0 0
0 0 0 0 0 0 0 0 0 0 0 0 0 0 0 0 0 0 0 0 0 0 0 0 0 1 1 1 1 1 2 2 2 1 1 1 1 1 1 1 1 1 0 0 0 0 0 0 0
-0 0 0 0 0 0 0 0 0 0 0 0 0 0 0 0 0 0 0 0 0 0 0 0 0 1 1 1 1 2 1 1 1 1 1 1 1 1 1 1 1 0 0 0 0 0 0 0 0
0 -0 0 0 0 0 0 0 0 0 0 0 0 0 0 0 0 0 0 0 0 0 0 0 0 1 1 1 1 1 1 1 1 1 1 1 1 1 1 1 0 0 0 0 0 0 0 0 0
0 -0 0 0 0 -0 0 0 0 0 0 0 0 0 0 0 0 0 0 0 0 0 0 0 1 1 1 1 1 0 0 0 0 0 1 1 1 1 0 0 0 0 0 0 0 0 0 0 0
0 0 0 0 0 0 0 0 0 0 0 0 0 0 0 0 0 0 0 0 1 0 0 0 1 0 0 0 0 0 0 0 0 0 0 0 0 0 0 0 0 0 0 0 0 0 0 0 0
Wind_Speed_500mb
22 11 8 10 14 13 27 16 22 13 16 8 8 14 24 18 33 2 13 40 33 36 44 46 40 36 38 40 37 35 33 31 29 27 26 25 23 21 18 15 14 11 8 4 3 3 3 1 3
18 15 11 12 16 22 23 26 20 21 3 10 13 25 18 17 25 3 25 46 37 37 42 46 43 38 37 39 37 36 36 35 33 31 28 27 24 22 19 17 15 12 10 8 5 4 2 2 1
19 17 20 11 24 29 21 18 22 12 10 10 8 15 17 19 19 4 32 46 40 39 41 44 42 39 35 36 38 36 35 36 35 35 33 31 28 25 21 19 16 13 10 9 7 5 3 1 4
14 14 17 21 33 34 30 2 5 9 11 5 11 8 13 15 10 16 47 47 41 39 41 40 41 38 36 38 38 36 36 36 35 35 34 32 30 27 24 21 17 14 11 11 8 4 4 4 5
16 15 21 31 43 37 23 31 18 21 19 15 10 15 10 14 19 30 50 48 43 42 41 38 40 40 39 39 40 38 38 36 36 35 35 34 31 28 26 23 20 17 13 10 8 5 3 4 5
17 14 23 35 39 34 31 32 30 32 29 26 19 24 17 11 23 35 51 48 41 41 39 40 43 42 40 40 40 40 40 39 38 38 37 36 35 33 31 28 24 18 13 10 7 6 5 5 6
32 21 34 40 33 28 31 28 32 33 29 27 17 23 8 13 22 40 48 49 46 42 40 42 46 47 45 45 42 43 43 43 42 42 42 42 42 39 37 32 27 21 17 13 11 9 8 7 8
37 23 43 39 35 42 30 26 41 32 30 3 18 18 19 15 18 34 41 45 43 40 43 46 47 48 50 51 50 47 46 48 48 49 47 47 47 45 43 37 33 28 23 19 16 15 12 10 12
33 26 34 46 38 26 14 30 38 23 25 21 8 6 7 11 21 30 35 36 36 38 46 47 48 51 52 54 52 51 52 54 55 56 53 53 55 55 52 48 40 36 31 27 23 20 17 16 15
39 33 52 37 28 18 38 36 25 15 34 32 19 15 11 11 22 31 36 38 39 39 39 46 49 50 54 53 54 53 56 61 63 66 65 65 64 55 52 52 50 44 40 34 30 27 25 23 15
51 52 44 49 38 33 45 44 35 31 32 38 30 24 9 4 9 19 25 30 30 35 34 34 46 49 54 53 54 55 57 62 67 71 73 73 65 54 54 46 55 54 50 43 40 37 33 23 18
53 60 65 65 42 29 42 47 55 55 51 44 21 25 30 28 21 20 21 25 27 28 31 30 37 42 48 54 55 53 58 58 62 65 71 76 71 65 55 47 45 53 47 47 38 32 27 26 27
58 58 61 61 60 44 47 55 51 56 58 52 52 46 48 46 42 36 34 36 32 31 29 23 32 38 34 37 46 52 61 64 61 58 61 66 60 64 57 52 49 45 42 40 39 36 31 31 29
50 58 73 71 50 54 54 62 51 70 60 59 59 59 59 51 44 37 35 37 36 40 41 31 36 27 28 32 43 55 64 65 63 52 52 71 63 64 57 54 50 48 46 42 41 36 34 33 31
59 55 51 51 69 59 49 59 72 78 67 63 53 56 57 59 51 47 46 45 40 41 45 47 34 33 39 49 55 59 60 66 61 55 58 62 65 60 61 50 49 47 48 49 40 38 34 33 35
34 45 49 67 51 57 51 61 73 74 68 66 71 64 65 66 61 56 50 45 37 39 38 35 35 37 50 52 55 59 61 62 60 53 51 56 58 54 56 48 46 45 46 43 43 38 36 35 41
41 48 62 59 55 49 43 73 69 83 60 59 60 60 60 59 53 44 37 39 38 37 36 37 42 54 58 55 57 55 61 60 54 52 45 49 49 46 47 39 39 43 42 42 41 38 35 35 38
53 54 56 57 46 54 57 70 58 56 33 62 66 65 63 59 50 43 43 44 44 45 61 67 67 67 59 51 50 50 56 54 46 44 42 44 41 38 36 34 36 42 37 39 36 36 33 36 29
50 55 52 42 43 55 57 70 60 61 71 63 61 64 67 67 63 55 52 49 50 52 59 57 60 58 54 45 42 42 44 41 37 36 39 39 32 32 32 32 39 34 33 34 35 35 35 27 23
46 52 59 39 34 42 52 62 54 53 58 70 70 70 69 68 63 60 57 52 52 50 54 51 56 61 54 45 42 34 33 33 31 29 32 28 30 33 35 33 30 30 28 33 36 33 25 21 25
47 50 48 54 34 44 40 54 53 46 49 54 64 67 68 68 66 68 67 63 59 53 51 50 48 44 47 41 40 36 32 36 31 29 27 30 33 33 31 35 34 29 28 29 36 31 26 25 21
42 45 49 48 45 39 41 41 45 48 55 56 69 72 71 67 69 71 71 71 70 65 55 48 53 49 48 46 39 36 32 27 26 26 28 30 31 33 36 37 35 29 26 30 30 27 26 23 23
44 38 49 41 43 49 59 35 35 37 43 43 39 51 57 62 64 63 64 67 63 55 52 53 61 56 52 49 36 37 30 25 25 30 29 31 35 37 38 38 34 30 27 26 28 26 27 24 22
44 37 42 40 37 40 54 45 39 39 45 37 34 44 46 35 36 39 38 41 51 49 45 44 50 50 48 39 35 34 34 32 34 35 36 34 40 39 40 35 32 30 28 27 28 25 25 23 21
33 35 24 33 38 37 41 37 36 13 14 14 3 14 20 18 23 23 28 28 32 35 38 34 39 44 40 34 33 37 35 33 35 37 36 38 35 34 39 36 35 29 29 25 22 22 19 21 21
41 38 27 41 34 44 52 45 35 42 45 58 35 11 11 14 21 27 28 29 26 28 33 34 33 31 33 34 37 37 37 34 35 35 36 34 33 31 38 35 28 26 24 21 20 16 18 21 21
42 38 41 48 39 30 39 50 48 29 21 20 20 13 10 19 28 35 32 24 19 24 31 31 31 32 35 37 41 43 39 38 39 38 40 35 33 31 33 29 26 23 21 19 19 18 21 22 22
45 38 28 27 30 34 30 43 25 41 48 23 9 6 17 25 36 40 26 15 9 20 25 31 35 38 41 42 42 41 41 38 41 42 36 34 31 30 28 25 23 20 20 20 19 19 20 21 21
24 33 20 30 27 31 24 26 31 15 23 22 8 15 27 35 45 42 24 13 5 17 26 34 40 44 45 43 42 43 41 41 41 37 34 31 29 25 22 21 21 21 21 20 20 21 21 23 23
4 18 13 22 28 33 32 9 11 35 26 12 10 22 33 41 48 42 22 8 12 24 34 40 44 46 45 44 44 44 43 40 37 34 30 26 23 21 22 22 22 21 20 19 20 21 22 23 24
Wind_Direction_500mb
196 203 187 206 232 236 244 227 241 196 199 170 270 201 226 226 172 170 165 165 171 179 193 191 188 183 178 170 170 167 168 165 166 169 175 176 176 175 170 166 167 166 163 144 97 58 46 123 203
186 195 194 239 247 222 230 214 213 210 158 295 244 217 233 213 209 10 156 165 174 182 192 193 188 185 184 175 177 178 178 175 175 176 180 183 182 181 176 175 174 168 165 162 151 132 83 359 318
181 193 237 227 234 240 241 179 220 181 279 274 224 223 184 225 218 205 174 162 170 182 194 195 191 186 188 184 184 189 189 188 187 188 189 190 191 190 188 185 184 179 176 176 171 160 152 201 291
176 203 243 244 234 227 240 89 164 225 304 265 231 205 211 206 192 199 173 169 172 186 195 195 197 195 197 196 195 199 202 200 200 200 201 201 201 199 200 195 192 188 185 189 185 179 186 196 230
189 237 243 234 243 245 235 246 271 263 289 268 250 235 236 220 205 178 178 173 180 185 197 200 203 207 209 206 204 209 212 214 213 212 212 212 213 215 213 208 204 197 194 196 200 209 219 236 251
197 251 241 240 240 242 243 252 256 260 268 268 239 228 228 195 182 172 179 180 185 189 194 206 212 214 218 221 216 218 221 223 224 225 222 221 223 224 222 217 215 213 211 213 218 228 247 273 293
233 220 240 259 265 266 248 240 248 256 263 248 225 215 205 186 175 175 178 189 196 198 206 214 216 217 222 228 229 228 228 234 233 233 232 229 230 231 229 225 224 224 224 229 234 242 253 272 292
229 244 251 240 242 251 256 256 245 247 249 217 219 210 163 152 174 173 180 193 199 205 213 219 224 225 228 231 233 235 236 239 240 240 240 237 236 236 234 229 228 229 233 239 243 246 251 258 280
228 239 242 242 233 243 239 249 243 248 250 217 240 144 63 200 180 180 187 193 199 209 219 221 227 234 237 237 242 241 243 241 242 244 245 242 239 238 236 232 232 234 235 239 244 250 254 258 267
218 228 239 247 257 237 246 250 250 237 225 224 220 163 80 84 182 194 199 204 208 216 221 230 232 235 236 238 245 252 249 248 246 245 244 240 238 235 235 235 234 233 235 237 244 252 256 260 247
223 239 246 245 247 242 251 257 245 245 246 221 216 206 214 245 177 200 213 221 220 229 235 235 246 247 248 243 245 252 255 254 251 250 246 244 237 231 237 226 233 230 233 237 245 250 250 241 240
239 240 242 258 244 239 249 259 260 250 248 242 220 243 268 275 259 235 236 242 237 240 244 241 258 263 261 256 261 264 264 258 255 253 249 240 239 233 228 223 225 228 227 233 236 235 237 234 240
237 241 246 246 252 241 253 249 251 249 246 250 251 256 263 269 266 263 258 257 251 255 255 253 266 280 272 262 262 269 272 270 262 252 249 243 230 229 230 226 221 226 225 229 227 229 232 237 240
239 248 247 251 239 245 242 251 251 246 250 253 257 258 259 259 260 267 266 262 258 259 258 263 271 262 280 276 276 273 274 270 264 248 240 255 240 231 229 228 225 225 226 229 228 230 234 240 243
256 260 261 249 241 239 245 255 247 248 246 254 252 254 255 256 259 260 260 257 258 258 258 259 248 264 274 285 279 278 274 270 260 254 247 245 250 231 231 226 226 228 227 225 224 226 233 237 247
261 246 245 240 232 239 230 254 250 244 236 241 254 254 259 261 262 265 262 257 252 250 248 246 252 260 281 280 277 274 268 262 259 249 242 249 243 231 232 223 228 227 227 227 227 231 235 245 247
242 243 236 246 231 223 216 244 252 254 253 242 247 261 259 261 262 257 254 249 250 252 258 256 257 267 273 276 277 267 259 259 253 247 239 243 239 228 217 222 223 226 220 222 224 226 234 244 252
237 238 246 258 238 227 224 242 249 257 244 247 245 249 252 255 255 256 259 261 262 263 274 274 270 268 264 270 269 265 257 252 245 239 233 236 230 219 219 214 214 225 215 216 220 226 233 240 245
263 268 260 262 250 256 230 241 246 246 255 257 255 255 257 260 263 265 264 266 265 266 276 269 263 255 260 262 266 267 248 238 236 228 228 230 216 215 216 205 220 214 213 222 226 224 230 232 240
257 255 257 256 282 251 244 252 250 244 248 251 255 255 262 268 270 271 270 268 266 268 274 266 263 260 261 265 262 246 235 226 219 218 225 211 205 211 211 194 196 179 190 203 211 203 212 228 238
254 253 250 253 263 236 250 252 253 248 251 254 256 258 262 265 269 269 269 268 268 265 263 268 267 261 262 263 256 249 217 218 218 205 201 203 204 206 197 184 176 174 182 202 198 204 211 222 233
266 250 253 251 243 243 219 256 244 238 242 243 249 253 257 263 263 266 268 268 266 264 259 255 261 262 262 266 242 232 210 200 196 187 194 198 194 186 178 175 172 178 179 195 201 207 224 234 241
266 264 251 238 242 249 249 262 263 259 258 257 255 254 255 261 265 268 267 265 262 258 252 249 251 253 262 259 230 225 189 187 178 169 185 175 175 176 175 174 176 181 184 195 199 215 236 245 240
265 251 245 243 241 236 236 239 255 253 254 253 250 250 253 260 270 268 272 270 255 251 247 237 240 244 247 240 226 208 186 179 169 167 160 160 169 173 175 174 179 186 189 203 214 232 246 241 224
240 244 238 220 232 238 228 232 242 210 4 235 143 241 245 273 280 290 280 275 261 243 232 224 219 222 226 219 206 192 184 178 174 165 158 158 164 169 177 177 189 192 200 212 220 235 222 227 215
227 227 234 225 228 232 227 239 223 228 257 252 290 249 248 320 315 315 300 283 265 236 217 208 205 205 197 185 176 169 167 159 157 157 159 159 166 172 182 186 189 195 204 215 230 221 207 212 216
240 247 246 267 282 254 222 214 249 253 229 233 221 293 321 326 330 328 317 291 258 220 203 194 186 178 168 163 160 158 151 149 154 154 151 158 161 169 174 183 188 196 207 214 209 202 208 213 214
248 229 228 245 256 239 225 206 223 212 214 224 134 37 12 0 345 340 332 305 235 196 188 176 172 164 158 155 152 150 148 151 156 154 151 154 162 163 171 180 193 197 202 196 198 209 209 208 206
219 219 249 266 261 263 223 213 212 232 132 127 94 28 11 9 355 350 335 308 180 169 163 159 156 154 151 148 147 143 142 145 148 150 153 161 168 172 177 185 188 187 188 192 194 199 210 209 211
299 317 265 249 221 258 279 74 88 120 143 134 44 11 359 355 351 357 351 2 143 152 152 151 150 148 148 146 143 141 141 144 147 150 155 167 166 166 169 171 174 180 182 196 203 212 217 216 223
Wind_Speed_850mb
22 11 8 10 14 13 27 16 22 13 16 8 8 14 24 18 33 2 13 40 33 36 44 46 40 36 38 40 37 35 33 31 29 27 26 25 23 21 18 15 14 11 8 4 3 3 3 1 3
18 15 11 12 16 22 23 26 20 21 3 10 13 25 18 17 25 3 25 46 37 37 42 46 43 38 37 39 37 36 36 35 33 31 28 27 24 22 19 17 15 12 10 8 5 4 2 2 1
19 17 20 11 24 29 21 18 22 12 10 10 8 15 17 19 19 4 32 46 40 39 41 44 42 39 35 36 38 36 35 36 35 35 33 31 28 25 21 19 16 13 10 9 7 5 3 1 4
14 14 17 21 33 34 30 2 5 9 11 5 11 8 13 15 10 16 47 47 41 39 41 40 41 38 36 38 38 36 36 36 35 35 34 32 30 27 24 21 17 14 11 11 8 4 4 4 5
16 15 21 31 43 37 23 31 18 21 19 15 10 15 10 14 19 30 50 48 43 42 41 38 40 40 39 39 40 38 38 36 36 35 35 34 31 28 26 23 20 17 13 10 8 5 3 4 5
17 14 23 35 39 34 31 32 30 32 29 26 19 24 17 11 23 35 51 48 41 41 39 40 43 42 40 40 40 40 40 39 38 38 37 36 35 33 31 28 24 18 13 10 7 6 5 5 6
32 21 34 40 33 28 31 28 32 33 29 27 17 23 8 13 22 40 48 49 46 42 40 42 46 47 45 45 42 43 43 43 42 42 42 42 42 39 37 32 27 21 17 13 11 9 8 7 8
37 23 43 39 35 42 30 26 41 32 30 3 18 18 19 15 18 34 41 45 43 40 43 46 47 48 50 51 50 47 46 48 48 49 47 47 47 45 43 37 33 28 23 19 16 15 12 10 12
33 26 34 46 38 26 14 30 38 23 25 21 8 6 7 11 21 30 35 36 36 38 46 47 48 51 52 54 52 51 52 54 55 56 53 53 55 55 52 48 40 36 31 27 23 20 17 16 15
39 33 52 37 28 18 38 36 25 15 34 32 19 15 11 11 22 31 36 38 39 39 39 46 49 50 54 53 54 53 56 61 63 66 65 65 64 55 52 52 50 44 40 34 30 27 25 23 15
51 52 44 49 38 33 45 44 35 31 32 38 30 24 9 4 9 19 25 30 30 35 34 34 46 49 54 53 54 55 57 62 67 71 73 73 65 54 54 46 55 54 50 43 40 37 33 23 18
53 60 65 65 42 29 42 47 55 55 51 44 21 25 30 28 21 20 21 25 27 28 31 30 37 42 48 54 55 53 58 58 62 65 71 76 71 65 55 47 45 53 47 47 38 32 27 26 27
58 58 61 61 60 44 47 55 51 56 58 52 52 46 48 46 42 36 34 36 32 31 29 23 32 38 34 37 46 52 61 64 61 58 61 66 60 64 57 52 49 45 42 40 39 36 31 31 29
50 58 73 71 50 54 54 62 51 70 60 59 59 59 59 51 44 37 35 37 36 40 41 31 36 27 28 32 43 55 64 65 63 52 52 71 63 64 57 54 50 48 46 42 41 36 34 33 31
59 55 51 51 69 59 49 59 72 78 67 63 53 56 57 59 51 47 46 45 40 41 45 47 34 33 39 49 55 59 60 66 61 55 58 62 65 60 61 50 49 47 48 49 40 38 34 33 35
34 45 49 67 51 57 51 61 73 74 68 66 71 64 65 66 61 56 50 45 37 39 38 35 35 37 50 52 55 59 61 62 60 53 51 56 58 54 56 48 46 45 46 43 43 38 36 35 41
41 48 62 59 55 49 43 73 69 83 60 59 60 60 60 59 53 44 37 39 38 37 36 37 42 54 58 55 57 55 61 60 54 52 45 49 49 46 47 39 39 43 42 42 41 38 35 35 38
53 54 56 57 46 54 57 70 58 56 33 62 66 65 63 59 50 43 43 44 44 45 61 67 67 67 59 51 50 50 56 54 46 44 42 44 41 38 36 34 36 42 37 39 36 36 33 36 29
50 55 52 42 43 55 57 70 60 61 71 63 61 64 67 67 63 55 52 49 50 52 59 57 60 58 54 45 42 42 44 41 37 36 39 39 32 32 32 32 39 34 33 34 35 35 35 27 23
46 52 59 39 34 42 52 62 54 53 58 70 70 70 69 68 63 60 57 52 52 50 54 51 56 61 54 45 42 34 33 33 31 29 32 28 30 33 35 33 30 30 28 33 36 33 25 21 25
47 50 48 54 34 44 40 54 53 46 49 54 64 67 68 68 66 68 67 63 59 53 51 50 48 44 47 41 40 36 32 36 31 29 27 30 33 33 31 35 34 29 28 29 36 31 26 25 21
42 45 49 48 45 39 41 41 45 48 55 56 69 72 71 67 69 71 71 71 70 65 55 48 53 49 48 46 39 36 32 27 26 26 28 30 31 33 36 37 35 29 26 30 30 27 26 23 23
44 38 49 41 43 49 59 35 35 37 43 43 39 51 57 62 64 63 64 67 63 55 52 53 61 56 52 49 36 37 30 25 25 30 29 31 35 37 38 38 34 30 27 26 28 26 27 24 22
44 37 42 40 37 40 54 45 39 39 45 37 34 44 46 35 36 39 38 41 51 49 45 44 50 50 48 39 35 34 34 32 34 35 36 34 40 39 40 35 32 30 28 27 28 25 25 23 21
33 35 24 33 38 37 41 37 36 13 14 14 3 14 20 18 23 23 28 28 32 35 38 34 39 44 40 34 33 37 35 33 35 37 36 38 35 34 39 36 35 29 29 25 22 22 19 21 21
41 38 27 41 34 44 52 45 35 42 45 58 35 11 11 14 21 27 28 29 26 28 33 34 33 31 33 34 37 37 37 34 35 35 36 34 33 31 38 35 28 26 24 21 20 16 18 21 21
42 38 41 48 39 30 39 50 48 29 21 20 20 13 10 19 28 35 32 24 19 24 31 31 31 32 35 37 41 43 39 38 39 38 40 35 33 31 33 29 26 23 21 19 19 18 21 22 22
45 38 28 27 30 34 30 43 25 41 48 23 9 6 17 25 36 40 26 15 9 20 25 31 35 38 41 42 42 41 41 38 41 42 36 34 31 30 28 25 23 20 20 20 19 19 20 21 21
24 33 20 30 27 31 24 26 31 15 23 22 8 15 27 35 45 42 24 13 5 17 26 34 40 44 45 43 42 43 41 41 41 37 34 31 29 25 22 21 21 21 21 20 20 21 21 23 23
4 18 13 22 28 33 32 9 11 35 26 12 10 22 33 41 48 42 22 8 12 24 34 40 44 46 45 44 44 44 43 40 37 34 30 26 23 21 22 22 22 21 20 19 20 21 22 23 24
Wind_Direction_850mb
196 203 187 206 232 236 244 227 241 196 199 170 270 201 226 226 172 170 165 165 171 179 193 191 188 183 178 170 170 167 168 165 166 169 175 176 176 175 170 166 167 166 163 144 97 58 46 123 203
186 195 194 239 247 222 230 214 213 210 158 295 244 217 233 213 209 10 156 165 174 182 192 193 188 185 184 175 177 178 178 175 175 176 180 183 182 181 176 175 174 168 165 162 151 132 83 359 318
181 193 237 227 234 240 241 179 220 181 279 274 224 223 184 225 218 205 174 162 170 182 194 195 191 186 188 184 184 189 189 188 187 188 189 190 191 190 188 185 184 179 176 176 171 160 152 201 291
176 203 243 244 234 227 240 89 164 225 304 265 231 205 211 206 192 199 173 169 172 186 195 195 197 195 197 196 195 199 202 200 200 200 201 201 201 199 200 195 192 188 185 189 185 179 186 196 230
189 237 243 234 243 245 235 246 271 263 289 268 250 235 236 220 205 178 178 173 180 185 197 200 203 207 209 206 204 209 212 214 213 212 212 212 213 215 213 208 204 197 194 196 200 209 219 236 251
197 251 241 240 240 242 243 252 256 260 268 268 239 228 228 195 182 172 179 180 185 189 194 206 212 214 218 221 216 218 221 223 224 225 222 221 223 224 222 217 215 213 211 213 218 228 247 273 293
233 220 240 259 265 266 248 240 248 256 263 248 225 215 205 186 175 175 178 189 196 198 206 214 216 217 222 228 229 228 228 234 233 233 232 229 230 231 229 225 224 224 224 229 234 242 253 272 292
229 244 251 240 242 251 256 256 245 247 249 217 219 210 163 152 174 173 180 193 199 205 213 219 224 225 228 231 233 235 236 239 240 240 240 237 236 236 234 229 228 229 233 239 243 246 251 258 280
228 239 242 242 233 243 239 249 243 248 250 217 240 144 63 200 180 180 187 193 199 209 219 221 227 234 237 237 242 241 243 241 242 244 245 242 239 238 236 232 232 234 235 239 244 250 254 258 267
218 228 239 247 257 237 246 250 250 237 225 224 220 163 80 84 182 194 199 204 208 216 221 230 232 235 236 238 245 252 249 248 246 245 244 240 238 235 235 235 234 233 235 237 244 252 256 260 247
223 239 246 245 247 242 251 257 245 245 246 221 216 206 214 245 177 200 213 221 220 229 235 235 246 247 248 243 245 252 255 254 251 250 246 244 237 231 237 226 233 230 233 237 245 250 250 241 240
239 240 242 258 244 239 249 259 260 250 248 242 220 243 268 275 259 235 236 242 237 240 244 241 258 263 261 256 261 264 264 258 255 253 249 240 239 233 228 223 225 228 227 233 236 235 237 234 240
237 241 246 246 252 241 253 249 251 249 246 250 251 256 263 269 266 263 258 257 251 255 255 253 266 280 272 262 262 269 272 270 262 252 249 243 230 229 230 226 221 226 225 229 227 229 232 237 240
239 248 247 251 239 245 242 251 251 246 250 253 257 258 259 259 260 267 266 262 258 259 258 263 271 262 280 276 276 273 274 270 264 248 240 255 240 231 229 228 225 225 226 229 228 230 234 240 243
256 260 261 249 241 239 245 255 247 248 246 254 252 254 255 256 259 260 260 257 258 258 258 259 248 264 274 285 279 278 274 270 260 254 247 245 250 231 231 226 226 228 227 225 224 226 233 237 247
261 246 245 240 232 239 230 254 250 244 236 241 254 254 259 261 262 265 262 257 252 250 248 246 252 260 281 280 277 274 268 262 259 249 242 249 243 231 232 223 228 227 227 227 227 231 235 245 247
242 243 236 246 231 223 216 244 252 254 253 242 247 261 259 261 262 257 254 249 250 252 258 256 257 267 273 276 277 267 259 259 253 247 239 243 239 228 217 222 223 226 220 222 224 226 234 244 252
237 238 246 258 238 227 224 242 249 257 244 247 245 249 252 255 255 256 259 261 262 263 274 274 270 268 264 270 269 265 257 252 245 239 233 236 230 219 219 214 214 225 215 216 220 226 233 240 245
263 268 260 262 250 256 230 241 246 246 255 257 255 255 257 260 263 265 264 266 265 266 276 269 263 255 260 262 266 267 248 238 236 228 228 230 216 215 216 205 220 214 213 222 226 224 230 232 240
257 255 257 256 282 251 244 252 250 244 248 251 255 255 262 268 270 271 270 268 266 268 274 266 263 260 261 265 262 246 235 226 219 218 225 211 205 211 211 194 196 179 190 203 211 203 212 228 238
254 253 250 253 263 236 250 252 253 248 251 254 256 258 262 265 269 269 269 268 268 265 263 268 267 261 262 263 256 249 217 218 218 205 201 203 204 206 197 184 176 174 182 202 198 204 211 222 233
266 250 253 251 243 243 219 256 244 238 242 243 249 253 257 263 263 266 268 268 266 264 259 255 261 262 262 266 242 232 210 200 196 187 194 198 194 186 178 175 172 178 179 195 201 207 224 234 241
266 264 251 238 242 249 249 262 263 259 258 257 255 254 255 261 265 268 267 265 262 258 252 249 251 253 262 259 230 225 189 187 178 169 185 175 175 176 175 174 176 181 184 195 199 215 236 245 240
265 251 245 243 241 236 236 239 255 253 254 253 250 250 253 260 270 268 272 270 255 251 247 237 240 244 247 240 226 208 186 179 169 167 160 160 169 173 175 174 179 186 189 203 214 232 246 241 224
240 244 238 220 232 238 228 232 242 210 4 235 143 241 245 273 280 290 280 275 261 243 232 224 219 222 226 219 206 192 184 178 174 165 158 158 164 169 177 177 189 192 200 212 220 235 222 227 215
227 227 234 225 228 232 227 239 223 228 257 252 290 249 248 320 315 315 300 283 265 236 217 208 205 205 197 185 176 169 167 159 157 157 159 159 166 172 182 186 189 195 204 215 230 221 207 212 216
240 247 246 267 282 254 222 214 249 253 229 233 221 293 321 326 330 328 317 291 258 220 203 194 186 178 168 163 160 158 151 149 154 154 151 158 161 169 174 183 188 196 207 214 209 202 208 213 214
248 229 228 245 256 239 225 206 223 212 214 224 134 37 12 0 345 340 332 305 235 196 188 176 172 164 158 155 152 150 148 151 156 154 151 154 162 163 171 180 193 197 202 196 198 209 209 208 206
219 219 249 266 261 263 223 213 212 232 132 127 94 28 11 9 355 350 335 308 180 169 163 159 156 154 151 148 147 143 142 145 148 150 153 161 168 172 177 185 188 187 188 192 194 199 210 209 211
299 317 265 249 221 258 279 74 88 120 143 134 44 11 359 355 351 357 351 2 143 152 152 151 150 148 148 146 143 141 141 144 147 150 155 167 166 166 169 171 174 180 182 196 203 212 217 216 223